Date String (YYYY-MM-DD hh:mm:ss) UTC,Instrument flags,absolute air pressure of the measurement (hPa),sample flow rate (lpm),inlet stack bypass flow (lpm),air temperature of the measurement (°C),ambient temperature measured by the external sensor (°C),aerosol sample conditioner tube jacket temperature (°C),OPC LED temperature (°C),internal box temperature (°C),relative humidity of the measurement (%),span deviation,mass concentration of particles derived from Lorenz-Mie calculation of OPC scattering (μg/m³),mass concentration of particles derived from Lorenz-Mie calculation of OPC scattering (μg/m³),mass concentration of particles derived from Lorenz-Mie calculation of OPC scattering (μg/m³)
DateTimeUTC,F1_M11,P_M11,Q1_M11,Q2_M11,T1_M11,T2_M11,T3_M11,T4_M11,T5_M11,U1_M11,ZSPAN_M11,X2_M11,X0_M11,X1_M11
2023-11-17 05:00:00,SystemResetWarning,0830.4,5.00,000.00,027.7,026.8,000.0,036.1,029.2,21.4,0000.0,0003.22,0008.10,0002.47
2023-11-17 05:01:00,SystemResetWarning,0830.5,4.99,000.00,027.7,026.8,000.0,036.1,029.2,21.4,0000.0,0003.22,0007.64,0002.48
2023-11-17 05:02:00,SystemResetWarning,0830.4,4.99,000.00,027.7,026.8,000.0,036.1,029.2,21.5,0000.0,0003.24,0007.71,0002.50
2023-11-17 05:03:00,SystemResetWarning,0830.4,5.00,000.00,027.7,026.8,000.0,036.1,029.1,21.6,0000.0,0003.26,0008.00,0002.52
2023-11-17 05:04:00,SystemResetWarning,0830.4,5.00,000.00,027.7,026.8,000.0,036.1,029.2,21.7,0000.0,0003.33,0008.20,0002.53
2023-11-17 05:05:00,SystemResetWarning,0830.4,5.01,000.00,027.7,026.8,000.0,036.1,029.2,21.7,0000.0,0003.36,0008.27,0002.54
2023-11-17 05:06:00,SystemResetWarning,0830.4,5.00,000.00,027.7,026.8,000.0,036.1,029.2,21.7,0000.0,0003.33,0007.85,0002.56
2023-11-17 05:07:00,SystemResetWarning,0830.4,5.00,000.00,027.7,026.8,000.0,036.1,029.2,21.8,0000.0,0003.31,0008.36,0002.59
2023-11-17 05:08:00,SystemResetWarning,0830.4,5.01,000.00,027.7,026.8,000.0,036.1,029.2,21.7,0000.0,0003.35,0008.29,0002.69
2023-11-17 05:09:00,SystemResetWarning,0830.3,5.00,000.00,027.7,026.8,000.0,036.1,029.2,21.8,0000.0,0003.40,0008.27,0002.78
2023-11-17 05:10:00,SystemResetWarning,0830.3,4.99,000.00,027.8,026.8,000.0,036.1,029.2,21.8,0000.0,0003.46,0008.22,0002.93
2023-11-17 05:11:00,SystemResetWarning,0830.3,5.00,000.00,027.8,026.8,000.0,036.1,029.2,21.8,0000.0,0003.57,0008.31,0003.09
2023-11-17 05:12:00,SystemResetWarning,0830.2,5.01,000.00,027.8,026.8,000.0,036.1,029.2,21.8,0000.0,0003.68,0008.50,0003.19
2023-11-17 05:13:00,SystemResetWarning,0830.2,5.01,000.00,027.7,026.8,000.0,036.1,029.2,21.7,0000.0,0003.78,0008.40,0003.28
2023-11-17 05:14:00,SystemResetWarning,0830.3,5.00,000.00,027.7,026.8,000.0,036.1,029.2,21.6,0000.0,0003.87,0009.03,0003.36
2023-11-17 05:15:00,SystemResetWarning,0830.2,4.99,000.00,027.7,026.8,000.0,036.1,029.2,21.5,0000.0,0003.92,0009.08,0003.44
2023-11-17 05:16:00,SystemResetWarning,0830.2,4.99,000.00,027.7,026.8,000.0,036.1,029.2,21.5,0000.0,0003.97,0009.01,0003.53
2023-11-17 05:17:00,SystemResetWarning,0830.2,5.00,000.00,027.7,026.8,000.0,036.1,029.2,21.5,0000.0,0004.05,0009.12,0003.60
2023-11-17 05:18:00,SystemResetWarning,0830.2,5.00,000.00,027.7,026.8,000.0,036.1,029.2,21.5,0000.0,0004.12,0008.83,0003.66
2023-11-17 05:19:00,SystemResetWarning,0830.3,5.00,000.00,027.7,026.8,000.0,036.1,029.1,21.5,0000.0,0004.13,0009.56,0003.66
2023-11-17 05:20:00,SystemResetWarning,0830.2,5.00,000.00,027.7,026.8,000.0,036.1,029.1,21.4,0000.0,0004.11,0010.84,0003.63
2023-11-17 05:21:00,SystemResetWarning,0830.2,5.01,000.00,027.7,026.8,000.0,036.1,029.2,21.4,0000.0,0004.08,0011.13,0003.56
2023-11-17 05:22:00,SystemResetWarning,0830.3,5.01,000.00,027.7,026.8,000.0,036.1,029.2,21.4,0000.0,0004.03,0011.08,0003.49
2023-11-17 05:23:00,SystemResetWarning,0830.3,4.99,000.00,027.7,026.8,000.0,036.1,029.1,21.3,0000.0,0003.93,0011.03,0003.41
2023-11-17 05:24:00,SystemResetWarning,0830.3,5.00,000.00,027.7,026.8,000.0,036.1,029.2,21.2,0000.0,0003.85,0010.94,0003.33
2023-11-17 05:25:00,SystemResetWarning,0830.3,4.99,000.00,027.7,026.8,000.0,036.1,029.2,21.2,0000.0,0003.77,0010.01,0003.26
2023-11-17 05:26:00,SystemResetWarning,0830.3,5.00,000.00,027.7,026.8,000.0,036.1,029.2,21.1,0000.0,0003.69,0009.86,0003.19
2023-11-17 05:27:00,SystemResetWarning,0830.3,5.01,000.00,027.7,026.8,000.0,036.1,029.1,21.1,0000.0,0003.65,0009.92,0003.12
2023-11-17 05:28:00,SystemResetWarning,0830.3,5.01,000.00,027.7,026.8,000.0,036.1,029.1,21.0,0000.0,0003.59,0010.44,0003.02
2023-11-17 05:29:00,SystemResetWarning,0830.3,5.01,000.00,027.7,026.8,000.0,036.1,029.1,21.0,0000.0,0003.54,0010.88,0002.91
2023-11-17 05:30:00,SystemResetWarning,0830.3,5.00,000.00,027.7,026.8,000.0,036.1,029.1,20.9,0000.0,0003.47,0010.19,0002.82
2023-11-17 05:31:00,SystemResetWarning,0830.3,4.99,000.00,027.7,026.8,000.0,036.1,029.1,20.9,0000.0,0003.43,0009.00,0002.80
2023-11-17 05:32:00,SystemResetWarning,0830.5,4.99,000.00,027.7,026.8,000.0,036.1,029.1,20.9,0000.0,0003.44,0008.59,0002.83
2023-11-17 05:33:00,SystemResetWarning,0830.4,5.00,000.00,027.7,026.8,000.0,036.1,029.1,20.8,0000.0,0003.43,0009.50,0002.84
2023-11-17 05:34:00,SystemResetWarning,0830.4,5.00,000.00,027.7,026.8,000.0,036.1,029.2,20.8,0000.0,0003.44,0009.46,0002.86
2023-11-17 05:35:00,SystemResetWarning,0830.6,5.01,000.00,027.8,026.8,000.0,036.1,029.1,20.8,0000.0,0003.45,0010.15,0002.90
2023-11-17 05:36:00,SystemResetWarning,0830.7,5.00,000.00,027.8,026.8,000.0,036.1,029.1,20.8,0000.0,0003.48,0010.96,0002.95
2023-11-17 05:37:00,SystemResetWarning,0830.5,5.01,000.00,027.8,026.8,000.0,036.1,029.2,20.8,0000.0,0003.49,0011.07,0002.98
2023-11-17 05:38:00,SystemResetWarning,0830.5,5.00,000.00,027.8,026.8,000.0,036.1,029.2,20.7,0000.0,0003.48,0011.74,0003.02
2023-11-17 05:39:00,SystemResetWarning,0830.5,4.99,000.00,027.8,026.8,000.0,036.1,029.1,20.7,0000.0,0003.51,0011.35,0003.07
2023-11-17 05:40:00,SystemResetWarning,0830.4,5.00,000.00,027.8,026.8,000.0,036.1,029.2,20.7,0000.0,0003.52,0010.81,0003.10
2023-11-17 05:41:00,SystemResetWarning,0830.4,5.01,000.00,027.8,026.8,000.0,036.1,029.2,20.7,0000.0,0003.55,0010.95,0003.13
2023-11-17 05:42:00,SystemResetWarning,0830.3,5.00,000.00,027.8,026.7,000.0,036.1,029.2,20.6,0000.0,0003.60,0011.05,0003.17
2023-11-17 05:43:00,SystemResetWarning,0830.2,5.01,000.00,027.8,026.7,000.0,036.1,029.2,20.6,0000.0,0003.60,0010.76,0003.19
2023-11-17 05:44:00,SystemResetWarning,0830.2,5.00,000.00,027.8,026.7,000.0,036.1,029.2,20.6,0000.0,0003.62,0010.03,0003.22
2023-11-17 05:45:00,SystemResetWarning,0830.1,5.01,000.00,027.8,026.7,000.0,036.1,029.2,20.6,0000.0,0003.70,0010.30,0003.26
2023-11-17 05:46:00,SystemResetWarning,0830.1,5.00,000.00,027.8,026.7,000.0,036.1,029.2,20.7,0000.0,0003.74,0009.90,0003.28
2023-11-17 05:47:00,SystemResetWarning,0830.1,4.99,000.00,027.8,026.7,000.0,036.1,029.2,20.9,0000.0,0003.76,0009.57,0003.30
2023-11-17 05:48:00,SystemResetWarning,0830.1,5.00,000.00,027.8,026.8,000.0,036.1,029.2,21.0,0000.0,0003.84,0009.60,0003.34
2023-11-17 05:49:00,SystemResetWarning,0830.0,5.00,000.00,027.8,026.7,000.0,036.1,029.2,21.0,0000.0,0003.93,0009.02,0003.37
2023-11-17 05:50:00,SystemResetWarning,0830.0,5.01,000.00,027.7,026.7,000.0,036.1,029.2,21.1,0000.0,0003.97,0009.11,0003.39
2023-11-17 05:51:00,SystemResetWarning,0830.0,5.00,000.00,027.7,026.7,000.0,036.1,029.2,21.2,0000.0,0004.01,0009.33,0003.43
2023-11-17 05:52:00,SystemResetWarning,0830.0,5.00,000.00,027.7,026.7,000.0,036.1,029.2,21.3,0000.0,0004.06,0008.95,0003.46
2023-11-17 05:53:00,SystemResetWarning,0830.0,4.99,000.00,027.7,026.7,000.0,036.1,029.2,21.3,0000.0,0004.08,0008.92,0003.49
2023-11-17 05:54:00,SystemResetWarning,0830.0,4.99,000.00,027.7,026.7,000.0,036.1,029.1,21.3,0000.0,0004.12,0009.00,0003.53
2023-11-17 05:55:00,SystemResetWarning,0830.1,5.01,000.00,027.7,026.7,000.0,036.1,029.1,21.4,0000.0,0004.15,0008.90,0003.56
2023-11-17 05:56:00,SystemResetWarning,0830.1,5.00,000.00,027.7,026.7,000.0,036.1,029.0,21.4,0000.0,0004.17,0008.73,0003.59
2023-11-17 05:57:00,SystemResetWarning,0830.1,5.01,000.00,027.7,026.7,000.0,036.1,029.1,21.4,0000.0,0004.21,0008.60,0003.63
2023-11-17 05:58:00,SystemResetWarning,0830.2,5.00,000.00,027.7,026.7,000.0,036.1,029.1,21.3,0000.0,0004.22,0008.13,0003.65
2023-11-17 05:59:00,SystemResetWarning,0830.2,5.00,000.00,027.7,026.7,000.0,036.1,029.0,21.3,0000.0,0004.19,0007.94,0003.67
